Location: Harriehausen
(51.8469°N, 10.0900°E)
Time: 06:10:30
(UTC+00:00)

Daily predictions for brighter satellites

Satellite Brightness Start Highest point End
(mag) Time Altitude Azimuth Time Altitude Azimuth Time Altitude Azimuth
ATLAS 3B R/B 3.6 16:13:34 10° NW 16:20:20 57° SW 16:27:21 10° SSE
PSLV R/B 4.1 16:21:22 10° S 16:25:03 68° WSW 16:28:49 10° NNW
CZ-4C R/B 3.0 16:22:27 10° NNE 16:25:32 48° E 16:28:35 10° S
Meteor 2-10 Rocket 4.2 16:20:33 10° N 16:25:39 35° ENE 16:30:32 10° SE
Cosmos 2344 4.4 16:19:21 10° NW 16:27:14 46° NNE 16:37:34 10° E
CREW DRAGON DEMO-1 DEB 2.7 16:27:22 10° W 16:30:16 83° S 16:33:11 10° E
CZ-4B R/B 3.3 16:26:00 10° SSE 16:31:33 77° ENE 16:37:14 10° NNW
SL-24 R/B 4.2 16:29:07 10° SSE 16:33:28 74° ENE 16:38:14 10° NNW
Cosmos 1603 4.4 16:29:55 10° NW 16:35:34 63° WSW 16:41:13 10° SSE
Cosmos 2297 Rocket 3.8 16:30:48 10° W 16:35:41 29° NW 16:40:35 10° NNE
USA-17 4.3 16:34:24 10° SW 16:37:57 78° SE 16:41:01 10° NE
Cosmos 1538 Rocket 4.1 16:33:07 10° NNW 16:38:13 54° ENE 16:43:16 10° SE
NOAA 12 4.2 16:34:08 10° SSE 16:39:22 85° WSW 16:44:39 10° NNW
Cosmos 2279 Rocket 4.0 16:34:48 10° N 16:41:04 64° ENE 16:47:16 10° SSE
Cosmos 1536 Rocket 4.0 16:37:06 10° SSW 16:41:28 68° WNW 16:45:54 10° N
NOSS 7 (H) 4.1 16:38:36 10° SW 16:41:48 89° SSW 16:44:40 11° NE
COSMO-SKYMED 1 3.7 16:38:41 10° NE 16:42:14 24° E 16:45:46 10° SSE
ATLAS 5 CENTAUR R/B 1.5 16:38:55 10° SSW 16:42:57 69° SE 16:47:35 10° NE
Cosmos 968 Rocket 4.1 16:39:56 10° SW 16:44:57 56° WNW 16:50:01 10° NNE
H-2A R/B 2.9 16:42:04 10° S 16:46:06 67° WSW 16:50:19 10° NNW
CZ-2D R/B 3.9 16:43:29 10° SE 16:46:59 34° ENE 16:50:29 10° N
Envisat 4.4 16:43:01 10° S 16:47:50 42° W 16:52:42 10° NNW
Lacrosse 5 1.8 16:42:46 10° WNW 16:47:52 82° NNE 16:52:55 10° ESE
ADEOS Rocket 3.9 16:42:26 10° N 16:48:20 47° WNW 16:53:44 10° SW
Cosmos 1025 Rocket 4.4 16:44:28 10° SW 16:48:34 39° WNW 16:52:42 10° N
Aureole 3 4.2 16:46:11 10° NNE 16:48:59 20° ENE 16:51:28 10° ESE
Cosmos 1354 Rocket 4.1 16:46:56 10° SSW 16:52:16 87° ESE 16:57:39 10° NNE
FengYun 1-2 T 4.3 16:48:57 10° SSE 16:54:31 87° WSW 17:00:12 10° NNW
NOSS 3-1 (C) 4.2 16:48:44 10° NW 16:55:27 49° NNE 17:03:23 10° ESE
Cosmos 1634 Rocket 4.4 16:49:50 10° NNW 16:56:03 71° W 17:02:17 10° S
SL-14 R/B 3.3 16:53:32 10° SSW 16:57:25 83° W 17:01:23 10° N
ISS -1.5 16:55:58 10° S 16:57:47 14° SE 16:59:24 11° ESE
Okean-O 3.3 16:57:19 10° SE 17:01:15 32° ENE 17:05:12 10° N
Okean O Rocket 2.0 16:57:53 10° S 17:02:18 69° WSW 17:06:45 10° NNW
RESURS DK-1 3.2 17:01:53 10° SW 17:05:55 49° NW 17:09:58 10° NNE
Cosmos 2263 Rocket 2.4 17:00:38 10° SW 17:06:20 78° WNW 17:12:02 10° NNE
Cosmos 1455 2.7 17:04:37 10° N 17:08:10 35° ENE 17:11:43 10° SE
Helios 1A Rocket 3.8 17:05:47 10° ESE 17:09:22 28° ENE 17:12:56 10° N
Meteor 2-5 Rocket 3.8 17:04:00 10° SSW 17:09:34 79° WNW 17:15:08 10° N
Aureole 2 Rocket 3.3 17:07:45 10° SSE 17:10:18 24° ESE 17:10:58 22° E
Cosmos 1606 Rocket 4.0 17:07:59 10° NNW 17:12:20 64° W 17:16:42 10° S
USA 229 DEB 4.2 17:06:09 10° NW 17:12:59 48° NNE 17:19:08 15° E
Cosmos 1300 3.9 17:09:21 10° NNW 17:13:01 45° W 17:16:40 10° SSW
USA 229 4.2 17:06:15 10° NW 17:13:04 47° NNE 17:19:10 15° E
H-2A R/B 2.2 17:08:42 10° NNE 17:13:12 80° WNW 17:17:34 10° SSW
Cosmos 1689 Rocket 4.5 17:17:54 10° SE 17:17:54 10° SE 17:17:58 10° SE
YAOGAN 1 2.9 17:13:14 10° SE 17:17:17 40° ENE 17:21:21 10° N
Cosmos 1892 Rocket 3.5 17:13:47 10° S 17:18:04 66° E 17:22:24 10° NNE
NOSS 3-4 (A) 4.3 17:12:33 10° W 17:18:18 43° NNW 17:23:48 13° NE
NOSS 3-4 (C) 4.3 17:12:42 10° W 17:18:27 43° NNW 17:23:58 13° NE
COSMOS 2406 4.1 17:14:17 10° NNW 17:19:20 29° NE 17:22:13 20° E
Cosmos 2228 4.1 17:15:45 10° NNW 17:19:52 48° W 17:23:59 10° SSW
ARGOS 3.7 17:15:17 10° SE 17:20:07 36° ENE 17:25:00 10° N
ERS-2 2.9 17:20:31 23° ENE 17:21:54 31° E 17:25:09 10° SSE
Aureole 1 4.1 17:20:09 10° NNW 17:23:13 55° ENE 17:26:11 10° SE
CZ-2C R/B 4.0 17:26:41 19° E 17:26:41 19° E 17:29:49 10° SE
Cosmos 1092 Rocket 4.5 17:21:40 10° SSE 17:27:10 35° E 17:32:39 10° NNE
Cosmos 1812 Rocket 4.2 17:23:48 10° N 17:27:48 32° ENE 17:31:45 10° SE
CZ-4B R/B 1.3 17:24:43 11° NNE 17:27:55 70° ESE 17:31:12 10° S
NOSS 3-1 (A) 4.2 17:21:50 10° NW 17:28:35 50° NNE 17:34:20 19° E
BREEZE-M DEB (TANK) 2.1 17:27:39 10° W 17:29:53 52° S 17:30:28 38° SE
SKYMED 2 3.5 17:26:11 10° NNE 17:30:32 66° ESE 17:34:51 10° S
IRS-1C Rocket 4.0 17:25:38 10° SSE 17:30:53 82° ENE 17:36:11 10° NNW
SJ 16-02 1.8 17:28:31 10° S 17:32:38 40° ESE 17:34:30 26° NE
CSL-04 Debris 4.4 17:27:59 10° SE 17:33:05 45° ENE 17:38:12 10° N
SeaSat 1 4.4 17:31:49 10° NNE 17:35:43 24° NW 17:39:35 10° W
ATLAS 2AS CENTAUR R/B 3.6 17:28:17 10° WSW 17:35:59 50° NNW 17:42:09 16° NE
Cosmos 1833 Rocket 3.4 17:32:12 10° NNW 17:37:14 32° NE 17:38:57 27° ENE
Cosmos 158 Rocket 4.0 17:32:12 10° NNW 17:37:33 79° ENE 17:42:57 10° SSE
Meteor 1-24 Rocket 4.2 17:34:24 10° SSW 17:39:39 58° WNW 17:44:54 10° N
Cosmos 923 Rocket 3.9 17:34:30 10° NNW 17:39:54 76° ENE 17:45:13 10° SSE
Cosmos 2082 Rocket 3.3 17:36:36 10° NNW 17:41:14 24° NE 17:42:06 23° NE
Cosmos 1844 4.0 17:36:11 10° S 17:41:31 44° ESE 17:44:20 25° NE
Nadezhda 4 Rocket 3.9 17:37:07 10° S 17:43:19 70° E 17:49:29 10° NNE
Cosmos 1939 Rocket 4.2 17:40:09 10° S 17:44:05 44° W 17:48:01 10° NNW
Cosmos 2058 Rocket 3.7 17:41:39 10° NNW 17:46:05 59° W 17:50:31 10° S
Cosmos 1680 Rocket 3.4 17:41:39 10° NNW 17:46:55 68° ENE 17:52:06 10° SE
H-2A R/B 1.9 17:42:13 10° SSE 17:47:12 72° ENE 17:52:20 10° NNW
Cosmos 1898 Rocket 4.4 17:44:36 10° SSE 17:48:39 28° ESE 17:48:39 28° ESE
APEX 4.5 17:42:25 10° SSW 17:49:23 76° ESE 17:53:51 20° NE
CZ-4C R/B 3.4 17:44:34 10° W 17:49:42 37° NNW 17:53:55 18° NE
CZ-2C R/B 3.5 17:45:35 10° S 17:50:55 70° WSW 17:56:35 10° NNW
PSLV R/B 4.0 17:49:11 27° NNE 17:51:19 57° ESE 17:55:28 10° S
COSMOS 2455 2.8 17:48:25 10° SW 17:54:28 87° SE 17:58:25 23° NE
Meteor 2-13 Rocket 4.3 17:48:27 10° S 17:54:33 79° E 18:00:44 10° NNE
MOS 1 Rocket 2.9 17:51:13 10° NNE 17:55:35 88° ESE 17:59:51 10° SSW
Cosmos 2227 Rocket 4.4 17:53:29 10° WNW 17:56:50 16° NNW 18:00:12 10° NNE
SJ-11-01 4.1 17:52:46 10° SSE 17:57:28 80° ENE 18:02:10 10° NNW
CZ-4 R/B 1.6 17:54:17 10° S 17:58:22 73° WSW 18:02:24 10° NNW
USA 234 3.3 17:55:48 30° E 17:59:06 64° NNE 18:05:35 10° WNW
Cosmos 1844 Rocket 2.6 17:54:35 10° SSW 18:00:13 70° ESE 18:03:17 28° NE
Iridium 4 Rocket 3.6 17:56:19 10° N 18:02:02 61° E 18:07:18 10° SSE
Cosmos 1818 3.5 17:57:01 10° SSW 18:02:23 65° SE 18:04:19 39° ENE
Okean 1-7 Rocket 3.9 17:59:16 10° SSW 18:03:48 69° WNW 18:08:23 10° N
CREW DRAGON DEMO-1 DEB 4.1 18:02:37 10° W 18:05:17 33° SSW 18:05:17 33° SSW
SAR-Lupe-4 3.4 18:06:12 76° SE 18:06:12 76° SE 18:09:41 10° S
Cosmos 1626 Rocket 3.4 18:05:38 10° S 18:10:00 79° E 18:12:05 31° NNE
X-37B 2.9 18:08:16 10° SSW 18:09:46 17° S 18:09:46 17° S
Meteor 1-21 Rocket 4.1 18:08:20 10° S 18:13:52 87° ESE 18:19:28 10° NNE
Cosmos 1553 Rocket 4.1 18:09:09 10° N 18:15:26 52° ENE 18:18:15 31° SE
SAR-Lupe-1 4.1 18:17:08 71° SW 18:17:08 71° SW 18:20:22 10° SSW
Cosmos 44 4.0 18:13:55 10° S 18:17:28 37° SSE 18:17:28 37° SSE
COSMO-SKYMED 1 3.6 18:14:26 10° N 18:18:36 45° WNW 18:22:45 10° SW
Cosmos 2026 Rocket 3.9 18:14:08 10° S 18:20:09 64° E 18:26:18 10° NNE
CSL-04 Rocket 3.6 18:17:39 10° SSE 18:23:04 85° WSW 18:28:37 10° NNW
Cosmos 2112 Rocket 4.1 18:19:26 10° NNW 18:24:43 75° WSW 18:28:48 17° SSE
SL-24 R/B - RUBIN 2 4.5 18:18:02 10° SW 18:24:46 87° SE 18:27:28 39° NE
ATLAS 5 CENTAUR R/B 3.0 18:24:06 10° W 18:27:59 32° NNW 18:29:11 28° N
Lacrosse 5 3.5 18:26:04 10° WNW 18:30:29 31° SW 18:34:00 14° S
ISS -1.7 18:30:44 10° SW 18:32:21 25° SW 18:32:21 25° SW
SL-08 RB Rocket 3.6 18:36:35 80° SW 18:36:44 82° WSW 18:41:16 10° NNW
Okean-O 4.1 18:33:35 10° SSW 18:37:41 36° W 18:41:48 10° NNW
S3M 4.3 18:31:49 10° N 18:36:31 45° NE 18:36:31 45° NE
Meteor 2-15 4.3 18:32:31 10° N 18:38:43 85° E 18:44:53 10° S
Meteor 1-27 4.3 18:36:03 10° N 18:40:53 59° NNE 18:40:53 59° NNE
MetOp-A 4.2 18:43:19 60° NNE 18:43:19 60° NNE 18:47:52 10° NNW
Cosmos 2344 4.2 18:33:55 10° NW 18:42:55 88° SW 18:51:01 25° SE
Helios 1A Rocket 4.4 18:40:34 10° SSW 18:44:24 37° W 18:48:17 10° NNW
NOSS 3-1 (C) 4.2 18:39:33 10° NW 18:46:51 70° SW 18:51:58 26° SSE
Cosmos 1602 Rocket 4.2 18:46:19 10° SSW 18:50:09 54° WSW 18:50:09 54° WSW
Cosmos 2263 Rocket 4.2 18:46:49 10° W 18:51:12 22° NW 18:54:29 14° N
USA 281 3.8 18:52:48 40° NNE 18:52:48 40° NNE 18:57:54 10° NNW
ERS-2 4.1 18:55:04 26° NW 18:55:21 26° WNW 18:58:26 10° WSW
Cosmos 990 Rocket 4.2 18:53:34 10° SSW 18:58:08 66° WSW 18:58:08 66° WSW
ARGOS 4.2 18:55:14 10° S 19:00:19 43° W 19:05:28 10° NNW
COSMOS 2406 3.3 18:58:25 10° NNW 19:04:13 74° WSW 19:04:20 73° SW
USA 229 DEB 4.0 18:57:12 10° NW 19:04:25 71° SW 19:06:38 48° SSE
USA 229 4.0 18:57:18 10° NW 19:04:31 72° SW 19:06:40 49° SSE
USA 267 4.1 19:07:16 35° S 19:07:16 35° S 19:11:27 10° SSW
CZ-2C R/B 3.2 19:08:09 53° SSW 19:08:09 53° SSW 19:12:23 10° SSW
Meteor 2-15 Rocket 4.5 19:02:13 10° NNW 19:08:23 76° W 19:09:30 60° SSW
Ariane Rocket 4.5 19:12:51 29° NNW 19:12:51 29° NNW 19:15:15 10° NNW
SJ 16-02 3.1 19:07:27 10° WSW 19:11:20 30° NW 19:11:32 29° NW
CZ-3B R/B 4.0 19:16:34 10° W 19:19:50 33° SSW 19:20:07 32° SSW
NOSS 3-1 (A) 4.2 19:12:43 10° NW 19:20:01 70° SW 19:21:49 55° S
Cosmos 1833 Rocket 3.2 19:16:00 10° NW 19:20:41 55° WNW 19:20:41 55° WNW
Cosmos 2082 Rocket 3.2 19:20:23 10° NNW 19:23:58 40° NNW 19:23:58 40° NNW
H-2A R/B 4.5 19:23:39 10° SW 19:27:12 19° W 19:30:51 10° NW
ATLAS 2AS CENTAUR R/B 3.9 19:21:39 10° WNW 19:28:41 34° N 19:29:35 33° N
CZ-4C R/B 3.9 19:34:33 10° NW 19:39:06 30° N 19:39:06 30° N
COSMOS 2455 4.2 19:35:48 10° W 19:41:07 31° NNW 19:41:35 31° NNW
USA 234 3.5 19:43:09 63° W 19:43:09 63° W 19:48:41 10° WNW
Cosmos 1844 Rocket 4.2 19:39:41 10° WSW 19:44:37 30° NW 19:44:59 30° NW
